TECHSAT 1B (GO-32)

Last updated on Wed Jul 02 2025 00:02:29 GMT+0000 (Coordinated Universal Time)

1 25397U 98043D 25182.53914883 .00000048 00000+0 40686-4 0 9998 2 25397 98.9712 162.1179 0002084 120.2458 239.8926 14.24319558401418
UTC large
Height (km)
Speed (km/s)
/
Latitude / Longitude
Inclination (degrees)
Orbital Period (minutes)
Azimuth
Elevation
Range (km)
Doppler Factor

Next 0 passes for location: London (51.5072 / 0.1276)

Sorry there are no passes over London.